Precipitable_Water
0.67 0.66 0.66 0.66 0.67 0.67 0.67 0.70 0.72 0.71 0.72 0.73 0.77 0.87 0.97 1.00 1.01 1.01 0.95 0.85 0.82 0.80
0.66 0.67 0.67 0.69 0.72 0.71 0.72 0.72 0.73 0.74 0.73 0.75 0.78 0.82 0.87 0.91 0.93 0.94 0.90 0.87 0.80 0.77
0.66 0.68 0.68 0.69 0.68 0.69 0.69 0.69 0.66 0.65 0.66 0.67 0.68 0.72 0.77 0.78 0.80 0.78 0.77 0.76 0.72 0.67
0.67 0.69 0.69 0.68 0.68 0.67 0.66 0.63 0.61 0.61 0.61 0.60 0.61 0.62 0.60 0.60 0.63 0.64 0.65 0.65 0.63 0.62
0.69 0.68 0.67 0.66 0.65 0.65 0.62 0.61 0.59 0.59 0.58 0.58 0.57 0.56 0.54 0.54 0.56 0.56 0.55 0.58 0.59 0.63
0.66 0.66 0.65 0.64 0.64 0.63 0.62 0.61 0.62 0.62 0.61 0.58 0.55 0.53 0.52 0.52 0.54 0.54 0.56 0.59 0.61 0.64
0.64 0.65 0.64 0.64 0.64 0.63 0.64 0.65 0.66 0.66 0.63 0.60 0.57 0.54 0.54 0.55 0.55 0.56 0.60 0.62 0.63 0.63
0.66 0.66 0.65 0.64 0.65 0.67 0.68 0.66 0.65 0.63 0.61 0.60 0.59 0.59 0.58 0.57 0.56 0.58 0.61 0.63 0.65 0.66
0.66 0.66 0.66 0.66 0.67 0.66 0.66 0.65 0.65 0.64 0.63 0.62 0.62 0.63 0.63 0.62 0.61 0.62 0.62 0.61 0.63 0.65
0.64 0.64 0.64 0.66 0.65 0.64 0.63 0.63 0.62 0.63 0.64 0.62 0.63 0.63 0.62 0.61 0.58 0.54 0.51 0.50 0.48 0.45
0.63 0.62 0.63 0.62 0.61 0.60 0.60 0.58 0.58 0.58 0.58 0.57 0.55 0.48 0.43 0.38 0.32 0.28 0.25 0.23 0.22 0.20
0.62 0.60 0.59 0.57 0.56 0.55 0.55 0.54 0.51 0.47 0.37 0.30 0.27 0.26 0.23 0.21 0.20 0.19 0.18 0.19 0.20 0.20
0.58 0.56 0.54 0.53 0.52 0.52 0.46 0.39 0.34 0.28 0.27 0.27 0.25 0.26 0.23 0.20 0.19 0.18 0.18 0.19 0.20 0.22
0.54 0.53 0.53 0.52 0.49 0.38 0.31 0.29 0.27 0.27 0.27 0.26 0.25 0.26 0.25 0.24 0.22 0.21 0.21 0.22 0.23 0.25
Wind_Speed
28 29 29 29 29 30 31 32 32 32 32 32 31 31 31 32 32 32 32 32 32 32
27 27 28 28 29 30 31 31 31 32 31 31 30 30 30 31 31 31 30 30 30 31
27 27 28 29 29 29 30 29 29 28 27 27 28 29 29 29 29 29 28 28 28 29
28 28 28 28 28 27 27 26 26 26 26 27 27 27 27 27 27 26 26 26 27 28
27 27 26 26 25 24 24 24 24 25 25 26 26 26 26 25 25 25 24 25 26 25
25 25 24 23 23 23 23 23 24 24 25 24 24 24 24 24 23 23 23 24 23 24
23 22 22 22 21 21 21 22 23 22 22 21 21 21 21 21 20 20 20 21 21 22
21 20 20 20 20 20 20 20 19 18 18 18 18 19 18 17 17 18 18 18 18 18
18 18 18 18 18 18 17 16 16 16 16 16 16 15 14 14 14 14 15 15 16 15
16 16 16 16 15 14 13 13 12 12 12 12 12 11 11 11 11 11 12 12 12 12
14 13 13 11 10 9 9 9 9 9 9 9 9 9 9 10 10 11 12 12 11 12
12 11 9 9 8 7 6 6 7 8 8 9 9 9 10 11 11 12 12 13 13 14
11 10 9 7 6 6 6 7 7 8 9 9 10 11 11 12 13 13 14 14 15 16
11 9 9 7 7 6 6 6 7 8 9 10 11 12 12 12 13 14 15 15 16 17
Wind_Direction
266 267 268 269 270 272 274 276 278 279 279 279 279 278 278 278 280 281 282 283 286 287
265 266 268 270 271 273 276 278 279 279 279 278 278 279 280 280 280 281 283 285 287 289
266 267 269 271 273 275 276 278 279 280 280 279 280 281 281 280 281 281 282 285 288 291
267 268 270 271 273 274 275 277 278 279 280 282 282 283 282 281 281 281 282 285 289 293
267 268 269 270 272 272 274 276 278 280 282 283 284 283 282 281 281 282 283 287 292 294
265 266 267 268 270 272 274 276 279 282 284 285 285 284 283 281 280 282 284 288 292 296
264 264 265 266 269 271 274 278 281 283 284 285 287 287 285 282 282 283 287 290 294 297
261 262 263 264 267 272 275 278 281 283 285 288 290 289 287 285 284 287 290 293 297 300
259 262 262 264 267 271 274 277 280 283 286 290 292 292 290 289 290 292 296 298 300 302
258 261 262 263 265 268 271 276 282 287 290 293 294 295 294 294 296 300 304 306 307 306
258 257 257 256 256 259 269 277 285 290 294 296 299 301 301 299 299 302 304 307 307 308
251 245 241 242 249 256 263 276 284 291 296 296 297 298 299 300 300 302 305 306 306 307
237 233 230 230 236 253 266 276 284 291 294 297 296 299 299 300 300 302 303 304 305 306
228 224 223 229 242 255 266 276 284 289 294 297 298 299 300 301 303 303 303 304 305 306